Content
SEND FEEDBACK

Daily
Averages
Monthly
Summary
United States of America

WILLIAMSBURG, VIRGINIA


Home > North America > United States > Virginia
Elevation: 105 feet     Latitude: 37 19N     Longitude: 076 43W

WEATHER
 
SELECT A DAY
Number of Records: 270,841;   Date Range: 4/22/03 - 8/12/14
 
SHARE

PRINT THIS DATA

[ ← Previous Day ]
WEATHER ALMANAC - FEBRUARY 13, 2013
[ Next Day → ]
[ °C ]   °F
Weather ElementAverageHighLow
Temperature48.1 °F51.8 °F (3:35 am)42.8 °F (10:55 pm)
Dewpoint42.1 °F46.4 °F (10:15 am)35.6 °F (12:35 am)
Humidity80.4 %93 % (3:55 pm)54 % (3:35 am)
Barometer29.77 in29.94 in (12:35 am)29.62 in (3:15 pm)
Wind Speed2.9 mph11.5 mph (10:15 pm)
Wind Gust19.6 mph (11:15 pm)
Weather ElementAverage
Visibility8.3 mi
Wind DirectionESE (111.4 °)

Weather ElementTotal
Precipitation0.14 in
Heating Degree Days17.7 (Base 65)
Averaged from 70 records on February 13, 2013
WEATHER CONDITIONS BREAKOUT
WIND DIRECTION BREAKOUT
WEATHER BY HOUR - FEBRUARY 13, 2013
[ °C ]   °F
Local TimeTemperatureDewpointHumidityBarometerVisibilityWind DirectionWind SpeedGust SpeedPrecipitationEventsConditions
12:35 AM48.2 °F35.6 °F62 %29.94 in10.0 miCalmScattered Clouds
12:55 AM48.2 °F35.6 °F62 %29.93 in10.0 miSSE (160°)4.6 mphScattered Clouds
1:15 AM48.2 °F37.4 °F66 %29.92 in10.0 miCalmClear
1:35 AM48.2 °F37.4 °F66 %29.93 in10.0 miSSE (160°)3.5 mphMostly Cloudy
1:55 AM48.2 °F37.4 °F66 %29.93 in10.0 miCalmOvercast
2:15 AM48.2 °F39.2 °F71 %29.91 in10.0 miSouth (170°)4.6 mphOvercast
2:35 AM48.2 °F39.2 °F71 %29.90 in10.0 miSouth (170°)4.6 mphOvercast
2:55 AM50.0 °F37.4 °F62 %29.90 in10.0 miSouth (180°)5.8 mphOvercast
3:15 AM50.0 °F35.6 °F58 %29.88 in10.0 miSouth (190°)5.8 mphOvercast
3:35 AM51.8 °F35.6 °F54 %29.86 in10.0 miSouth (170°)3.5 mphOvercast
3:55 AM51.8 °F37.4 °F58 %29.87 in10.0 miCalmOvercast
4:15 AM51.8 °F37.4 °F58 %29.86 in10.0 miCalmOvercast
4:35 AM50.0 °F37.4 °F62 %29.87 in10.0 miWNW (300°)3.5 mphOvercast
4:55 AM48.2 °F39.2 °F71 %29.86 in10.0 miNNW (330°)3.5 mphOvercast
5:15 AM48.2 °F39.2 °F71 %29.83 in10.0 miCalmOvercast
5:35 AM48.2 °F39.2 °F71 %29.84 in10.0 miCalmOvercast
5:55 AM48.2 °F39.2 °F71 %29.84 in10.0 miCalmOvercast
6:15 AM48.2 °F39.2 °F71 %29.83 in10.0 miCalmOvercast
6:35 AM48.2 °F39.2 °F71 %29.84 in10.0 miSouth (170°)3.5 mphOvercast
6:55 AM48.2 °F39.2 °F71 %29.83 in10.0 miSouth (170°)3.5 mphOvercast
7:15 AM48.2 °F39.2 °F71 %29.84 in10.0 miCalmOvercast
7:35 AM46.4 °F41.0 °F81 %29.84 in10.0 miSouth (170°)4.6 mphMostly Cloudy
7:55 AM46.4 °F42.8 °F87 %29.84 in10.0 miCalmMostly Cloudy
8:15 AM48.2 °F44.6 °F87 %29.85 in10.0 miCalmOvercast
8:35 AM48.2 °F42.8 °F82 %29.86 in10.0 miSSW (200°)3.5 mphMostly Cloudy
8:55 AM48.2 °F42.8 °F82 %29.86 in10.0 miCalmMostly Cloudy
9:15 AM48.2 °F42.8 °F82 %29.85 in10.0 miCalmMostly Cloudy
9:35 AM48.2 °F44.6 °F87 %29.85 in10.0 miCalm0.01 inMostly Cloudy
9:55 AM50.0 °F44.6 °F82 %29.85 in10.0 miCalm0.01 inOvercast
10:15 AM51.8 °F46.4 °F82 %29.83 in10.0 miCalmOvercast
10:35 AM51.8 °F46.4 °F82 %29.82 in10.0 miCalmOvercast
10:55 AM51.8 °F44.6 °F76 %29.82 in10.0 miCalmOvercast
11:15 AM51.8 °F46.4 °F82 %29.81 in10.0 miCalm0.01 inMostly Cloudy
11:35 AM51.8 °F46.4 °F82 %29.79 in10.0 miCalm0.01 inMostly Cloudy
11:55 AM51.8 °F44.6 °F76 %29.78 in10.0 miCalm0.01 inOvercast
12:15 PM51.8 °F42.8 °F71 %29.76 in10.0 miCalmOvercast
12:35 PM51.8 °F42.8 °F71 %29.75 in10.0 miCalmOvercast
12:55 PM51.8 °F42.8 °F71 %29.72 in10.0 miCalmOvercast
1:15 PM51.8 °F44.6 °F76 %29.70 in10.0 miCalmOvercast
1:35 PM51.8 °F44.6 °F76 %29.69 in7.0 miCalmOvercast
1:55 PM50.0 °F44.6 °F82 %29.68 in10.0 miCalmOvercast
2:15 PM50.0 °F44.6 °F82 %29.66 in10.0 miCalmOvercast
2:35 PM50.0 °F44.6 °F82 %29.65 in10.0 miESE (110°)4.6 mphOvercast
2:55 PM50.0 °F44.6 °F82 %29.65 in10.0 miEast (100°)6.9 mphOvercast
3:15 PM48.2 °F44.6 °F87 %29.62 in10.0 miEast (100°)4.6 mphOvercast
3:35 PM48.2 °F44.6 °F87 %29.64 in3.0 miEast (80°)4.6 mphOvercast
3:55 PM46.4 °F44.6 °F93 %29.64 in1.2 miESE (120°)3.5 mphOvercast
4:15 PM46.4 °F44.6 °F93 %29.65 in1.2 miCalmOvercast
4:55 PM46.4 °F44.6 °F93 %29.64 in1.0 miCalm0.01 inOvercast
5:15 PM46.4 °F44.6 °F93 %29.62 in0.8 miCalm0.01 inOvercast
5:35 PM46.4 °F44.6 °F93 %29.63 in2.0 miCalm0.01 inOvercast
5:55 PM46.4 °F44.6 °F93 %29.63 in2.0 miCalm0.02 inOvercast
6:15 PM46.4 °F44.6 °F93 %29.63 in2.5 miCalmOvercast
6:35 PM46.4 °F44.6 °F93 %29.63 in1.8 miCalmOvercast
6:55 PM46.4 °F44.6 °F93 %29.64 in2.5 miCalm0.01 inOvercast
7:15 PM46.4 °F44.6 °F93 %29.64 in2.5 miNW (310°)4.6 mphOvercast
7:35 PM46.4 °F44.6 °F93 %29.65 in2.5 miWNW (300°)4.6 mphOvercast
7:55 PM46.4 °F44.6 °F93 %29.64 in4.0 miNNW (330°)5.8 mphOvercast
8:15 PM46.4 °F44.6 °F93 %29.66 in7.0 miNW (310°)9.2 mphOvercast
8:35 PM46.4 °F44.6 °F93 %29.66 in4.0 miNW (310°)4.6 mphOvercast
8:55 PM44.6 °F42.8 °F93 %29.67 in10.0 miNW (310°)8.1 mphOvercast
9:15 PM44.6 °F42.8 °F93 %29.68 in10.0 miNW (310°)6.9 mphOvercast
9:35 PM44.6 °F42.8 °F93 %29.69 in10.0 miNW (310°)6.9 mphOvercast
9:55 PM44.6 °F42.8 °F93 %29.69 in10.0 miNNW (330°)8.1 mphOvercast
10:15 PM44.6 °F42.8 °F93 %29.71 in10.0 miNNW (330°)11.5 mph0.01 inOvercast
10:35 PM44.6 °F42.8 °F93 %29.72 in10.0 miNNW (330°)10.4 mph16.1 mph0.01 inOvercast
10:55 PM42.8 °F41.0 °F93 %29.73 in7.0 miNW (320°)11.5 mph17.3 mph0.01 inOvercast
11:15 PM42.8 °F41.0 °F93 %29.75 in7.0 miNW (320°)10.4 mph19.6 mphOvercast
11:35 PM42.8 °F41.0 °F93 %29.75 in10.0 miNW (320°)9.2 mphOvercast
11:55 PM42.8 °F39.2 °F87 %29.77 in10.0 miNW (310°)10.4 mph16.1 mphOvercast
Hourly data recorded from KJGG, located miles away from Williamsburg, Virginia







STORIES FROM OUR PARTNERS